sat.trackr.live / text

‹ back to catalog

LOBACHEVSKY (RS83S)

NORAD 67284 · 2025-313AN

PAYLOAD ACTIVE UNKNOWN

§ Identity

Operator
Country
TBD
Launch date
2025-12-28
Launch site
VOSTO
Launch vehicle
Mass (kg)
RCS (m²)

External: N2YO · Heavens-Above · Gunter

§ Orbital elements

Epoch: 2026-05-25T03:56:42.425088Z

Period
94.57 min
Inclination
97.3924°
Eccentricity
0.0012339
Mean motion
15.22620330 rev/d
Perigee alt
489.5 km
Apogee alt
506.4 km
Semi-major
6,876.1 km
B*
2.3048e-4
RAAN
220.2174°
Arg perigee
83.1208°
Mean anomaly
277.1432°
Rev number
2,245

§ Raw data

LOBACHEVSKY (RS83S)1 67284U 25313AN  26145.16437992  .00005300  00000+0  23048-3 0  99972 67284  97.3924 220.2174 0012339  83.1208 277.1432 15.22620330 22454

JSON: /api/v1/satellites/67284 · /tle

For live sub-satellite position, see the globe view (requires WebGL).

§ Visibility from observer

Set your observer location to see the next 7 days of passes ≥ 10°. The values pass through the URL so the page stays shareable.

No JS? Fill the form by hand. The geolocation button needs JavaScript.